Home   Weather   Kumamoto   Past weeks

Flag for Japan Past Weather in Kumamoto, Japan — Yesterday and Last 2 Weeks

Now
35 °F

Chilly.


Feels Like: 31 °F
Forecast: 31 / 48 °F
Wind: 5 mph from Southeast

Location: Kumamoto

Current Time: Jan 21, 2017 at 1:21:09 am

Latest Report: Jan 21, 2017 at 12:00 am


Visibility: N/A

Pressure: 30.25 "Hg

Humidity: 89%

Dew Point: 33 °F

Location of KumamotoLocation

Past Weather in Kumamoto — Graph

°F

Kumamoto Temperature Yesterday

Maximum temperature yesterday: 46 °F (at 10:00 am)
Minimum temperature yesterday: 38 °F (at 11:00 pm)
Average temperature yesterday: 42 °F

High & Low Weather Summary for the Past Weeks

 TemperatureHumidityPressure
High59 °F (Jan 8, 4:00 pm)100% (Jan 8, 12:00 am)30.45 "Hg (Jan 8, 12:00 am)
Low26 °F (Jan 16, 6:00 am)35% (Jan 6, 3:00 pm)29.73 "Hg (Jan 8, 2:00 pm)
Average43 °F70%30.13 "Hg
* Reported Jan 5 11:00 pm — Jan 20 11:00 pm, Kumamoto, Weather by CustomWeather, © 2017

Note: Actual official high and low records may vary slightly from our data, if they occured in-between our weather recording intervals... More about our weather records

Advertising

Kumamoto Weather History for the Previous 24 Hours

Scroll right to see more
 ConditionsComfort  
Time TempWeatherWind HumidityBarometerVisibility
11:00 pm
Fri, Jan 20
38 °FChilly.6 mph73%30.25 "HgN/A
10:00 pm39 °FChilly.5 mph66%30.22 "HgN/A
9:00 pm40 °FPassing clouds.3 mph56%30.19 "Hg6 mi
8:00 pm40 °FChilly.6 mph59%30.17 "HgN/A
7:00 pm40 °FChilly.10 mph54%30.14 "HgN/A
6:00 pm39 °FPassing clouds.13 mph63%30.11 "Hg6 mi
5:00 pm39 °FChilly.9 mph54%30.08 "HgN/A
4:00 pm40 °FQuite cool.16 mph59%30.06 "HgN/A
3:00 pm41 °FOvercast.16 mph67%30.02 "Hg9 mi
2:00 pm42 °FQuite cool.17 mph69%30.00 "HgN/A
1:00 pm42 °FQuite cool.14 mph76%30.00 "HgN/A
12:00 pm43 °FSprinkles. Overcast.14 mph81%30.01 "Hg9 mi
11:00 am44 °FQuite cool.17 mph72%30.03 "HgN/A
10:00 am46 °FCool.18 mph59%30.02 "HgN/A
9:00 am45 °FSprinkles. Overcast.9 mph84%30.00 "Hg3 mi
8:00 am43 °FQuite cool.2 mph94%29.99 "HgN/A
7:00 am44 °FQuite cool.3 mph92%29.99 "HgN/A
6:00 am44 °FOvercast.3 mph96%30.02 "Hg9 mi
5:00 am43 °FQuite cool.3 mph95%30.02 "HgN/A
4:00 am43 °FQuite cool.2 mph93%30.02 "HgN/A
3:00 am43 °FSprinkles. Overcast.1 mph91%30.03 "Hg6 mi
2:00 am44 °FQuite cool.1 mph87%30.03 "HgN/A
1:00 am44 °FQuite cool.3 mph89%30.03 "HgN/A
Weather by CustomWeather, © 2017

See weather overviewHow to use our weather pages